SCP
0 0 0 0 0 0 0 0 0 0 0 0 0 0 0 0 0 0 0 0 0 0 0 0 0 0 0 0 0 0 0 0
0 0 0 0 0 0 0 0 0 0 0 0 0 0 0 0 0 0 0 0 0 0 0 0 0 0 0 0 0 0 0 0
0 0 0 0 0 0 0 0 0 0 0 0 0 0 0 0 0 0 0 0 0 0 0 0 0 0 0 0 0 0 0 0
0 0 0 0 0 0 0 0 0 0 0 0 0 0 0 0 0 0 0 0 0 0 0 0 0 0 0 0 0 0 0 0
0 0 0 0 0 0 0 0 0 0 0 0 0 0 0 0 0 0 0 0 0 0 0 0 0 0 0 0 0 0 0 0
0 0 0 0 0 0 0 0 0 0 0 0 0 0 0 0 0 0 0 0 0 0 0 0 0 0 0 0 0 0 0 0
0 0 0 0 0 0 0 0 0 0 0 0 0 0 0 0 0 0 0 0 0 0 0 0 0 0 0 0 0 0 0 0
0 0 0 0 0 0 0 0 0 0 0 0 0 0 0 0 0 0 0 0 0 0 0 0 0 0 0 0 0 0 0 0
0 0 0 0 0 0 0 0 0 0 0 0 0 0 0 0 0 0 0 0 0 0 0 0 0 0 0 0 0 0 0 0
0 0 0 0 0 0 0 0 0 0 0 0 0 0 0 0 0 0 0 0 0 0 0 0 0 0 0 0 0 0 0 0
0 0 0 0 0 0 0 0 0 0 0 0 0 0 0 0 0 0 0 0 0 0 0 0 0 0 0 0 0 0 0 0
0 0 0 0 0 0 0 0 0 0 0 0 0 0 0 0 0 0 0 0 0 0 0 0 0 0 0 0 0 0 0 0
0 0 0 0 0 0 0 0 0 0 0 0 0 0 0 0 0 0 0 0 0 0 0 0 0 0 0 0 0 0 0 0
0 0 0 0 0 0 0 0 0 0 0 0 0 0 0 0 0 0 0 0 0 0 0 0 0 0 0 0 0 0 0 0
0 0 0 0 0 0 0 0 0 0 0 0 0 0 0 0 0 0 0 0 0 0 0 0 0 0 0 0 0 0 0 0
0 0 0 0 0 0 0 0 0 0 0 0 0 0 0 0 0 0 0 0 0 0 0 0 0 0 0 0 0 0 0 0
0 0 0 0 0 0 0 0 0 0 0 0 0 0 0 0 0 0 0 0 0 0 0 0 0 0 0 0 0 0 0 0
0 0 0 0 0 0 0 0 0 0 0 0 0 0 0 0 0 0 0 0 0 0 0 0 0 0 0 0 0 0 0 0
0 0 0 0 0 0 0 0 0 0 0 0 0 0 0 0 0 0 0 0 0 0 0 0 0 0 0 0 0 0 0 0
0 0 0 0 0 0 0 0 0 0 0 0 0 0 0 0 0 0 0 0 0 0 0 0 0 0 0 0 0 0 0 0
Wind_Speed_500mb
44 42 38 32 25 26 27 30 34 38 40 42 45 49 54 59 61 59 56 55 53 52 52 55 54 53 54 57 59 64 65 68
39 37 35 31 26 26 27 28 30 33 35 38 41 46 51 57 58 55 53 50 49 48 49 50 51 51 54 56 59 62 64 71
31 35 33 29 27 25 25 24 25 28 30 34 38 43 48 54 58 56 52 49 47 47 48 49 51 50 53 55 56 60 64 62
29 37 35 30 27 25 24 21 21 24 27 30 35 40 47 53 58 58 52 50 48 48 48 50 49 49 49 53 53 56 57 53
35 34 31 30 28 27 23 19 18 21 22 26 31 38 44 50 55 58 55 51 46 45 45 45 46 45 46 48 48 51 45 46
30 32 31 31 31 28 24 19 17 19 18 22 27 33 39 46 53 55 54 52 48 47 45 44 43 43 48 47 44 38 36 38
30 32 34 34 32 28 26 18 16 17 15 18 22 29 36 42 48 53 53 54 53 52 50 49 46 42 36 35 28 23 24 30
32 30 32 35 32 28 25 17 18 16 12 14 18 24 30 36 42 47 51 54 57 59 59 55 54 52 45 36 30 28 31 36
25 26 31 36 35 31 25 16 21 16 11 13 16 18 25 32 37 42 47 53 56 57 59 59 59 57 53 45 34 26 24 26
17 22 30 34 33 32 26 19 24 18 13 12 16 16 21 27 33 37 40 45 51 53 56 58 57 56 52 45 37 32 28 20
18 22 29 32 34 34 27 22 25 20 18 14 19 16 17 22 26 31 33 36 39 43 49 53 57 55 53 47 40 38 36 32
22 25 25 31 34 36 32 28 24 27 22 18 21 18 14 15 21 25 27 28 30 34 38 42 47 49 50 50 47 45 41 40
25 30 34 39 40 39 41 25 33 30 28 24 23 23 17 13 14 16 19 21 24 26 30 35 40 42 44 44 44 43 46 49
29 30 38 44 47 47 38 36 38 36 33 31 29 27 23 17 14 14 15 17 19 22 25 29 32 34 37 39 40 40 40 41
25 33 39 43 49 49 44 42 46 44 39 38 35 32 29 23 18 15 13 15 15 16 19 23 24 27 30 33 34 35 34 34
32 35 37 41 47 47 50 53 55 51 47 45 43 39 35 30 23 21 18 15 14 13 14 16 17 20 22 23 23 24 26 25
47 51 49 49 46 46 51 58 61 61 58 52 49 46 41 35 29 26 23 19 17 14 13 12 13 14 14 14 14 14 15 14
57 55 50 52 55 50 48 56 66 69 66 58 54 52 49 42 36 31 27 24 20 18 16 15 13 13 14 14 13 11 8 7
56 54 50 51 55 53 53 55 63 71 70 67 61 56 51 46 40 36 32 27 23 22 21 19 19 19 17 17 17 17 15 12
52 53 53 56 50 48 51 58 61 67 74 73 68 60 55 50 46 41 37 34 29 25 22 20 19 19 21 22 23 22 18 16
Wind_Direction_500mb
220 231 237 244 270 298 304 311 320 328 333 337 342 342 340 337 332 325 321 317 312 310 307 305 302 298 291 285 280 273 268 267
226 237 244 248 272 289 294 306 319 328 335 340 347 347 345 341 337 335 331 326 322 317 310 305 304 300 295 291 288 279 268 265
234 246 251 253 272 275 285 301 318 328 334 344 353 352 348 347 346 343 339 334 327 324 321 318 313 309 301 296 295 287 273 273
235 244 251 252 255 262 277 296 312 322 334 350 356 355 355 355 352 350 344 341 338 333 328 324 318 311 310 305 299 295 278 267
250 247 244 248 243 255 270 285 301 317 335 354 355 358 359 359 357 357 358 353 348 344 340 338 334 328 319 315 308 304 281 269
241 245 243 233 237 248 261 272 295 307 334 350 355 359 3 3 4 5 11 5 360 357 357 355 350 345 340 325 315 306 289 281
243 239 232 227 232 241 252 261 282 294 325 344 351 2 5 6 7 11 16 15 13 10 8 5 360 359 351 330 326 316 308 292
246 240 228 224 229 237 243 252 267 278 308 330 341 356 359 4 9 12 18 19 20 17 13 15 12 7 6 1 338 320 306 299
240 230 222 220 226 232 237 246 261 266 283 308 320 342 351 359 5 12 18 20 20 21 20 19 20 12 8 7 3 356 338 325
227 224 221 222 225 232 234 242 255 252 258 284 298 325 346 359 1 4 13 21 20 19 21 22 26 21 16 14 23 26 25 15
236 226 222 222 227 236 239 246 256 250 252 269 285 305 338 356 2 1 8 15 16 19 25 26 27 31 28 26 30 39 42 43
255 250 242 231 234 241 243 248 251 248 249 254 271 284 312 345 0 2 5 11 17 22 28 31 34 35 36 37 38 38 44 50
266 258 246 239 240 244 246 245 246 247 248 249 258 268 286 314 339 351 0 10 15 23 26 29 32 33 35 39 41 41 47 50
271 263 251 246 247 248 253 240 246 246 243 245 248 257 268 282 306 324 339 354 7 16 25 30 31 33 35 39 41 43 44 51
282 267 262 255 254 255 251 243 242 247 243 242 246 253 257 264 277 292 313 326 343 3 17 29 32 33 37 38 39 41 47 50
289 285 280 270 261 257 252 246 242 243 245 243 244 246 251 258 265 275 286 298 314 340 357 9 17 28 29 29 33 37 41 41
289 286 282 275 271 263 252 246 244 241 241 242 243 245 247 252 254 259 271 281 292 305 319 334 345 358 7 14 15 20 26 14
289 286 279 270 267 264 258 248 243 243 241 241 241 242 245 249 254 258 262 268 279 289 296 304 311 323 328 339 348 354 5 10
284 283 280 275 271 268 260 254 246 243 242 241 241 241 243 246 250 254 261 266 274 281 288 297 307 315 315 315 317 324 329 330
282 283 283 281 277 276 263 254 249 244 241 240 238 239 240 243 245 249 254 259 263 262 270 281 294 306 310 307 303 303 302 299
Wind_Speed_850mb
44 42 38 32 25 26 27 30 34 38 40 42 45 49 54 59 61 59 56 55 53 52 52 55 54 53 54 57 59 64 65 68
39 37 35 31 26 26 27 28 30 33 35 38 41 46 51 57 58 55 53 50 49 48 49 50 51 51 54 56 59 62 64 71
31 35 33 29 27 25 25 24 25 28 30 34 38 43 48 54 58 56 52 49 47 47 48 49 51 50 53 55 56 60 64 62
29 37 35 30 27 25 24 21 21 24 27 30 35 40 47 53 58 58 52 50 48 48 48 50 49 49 49 53 53 56 57 53
35 34 31 30 28 27 23 19 18 21 22 26 31 38 44 50 55 58 55 51 46 45 45 45 46 45 46 48 48 51 45 46
30 32 31 31 31 28 24 19 17 19 18 22 27 33 39 46 53 55 54 52 48 47 45 44 43 43 48 47 44 38 36 38
30 32 34 34 32 28 26 18 16 17 15 18 22 29 36 42 48 53 53 54 53 52 50 49 46 42 36 35 28 23 24 30
32 30 32 35 32 28 25 17 18 16 12 14 18 24 30 36 42 47 51 54 57 59 59 55 54 52 45 36 30 28 31 36
25 26 31 36 35 31 25 16 21 16 11 13 16 18 25 32 37 42 47 53 56 57 59 59 59 57 53 45 34 26 24 26
17 22 30 34 33 32 26 19 24 18 13 12 16 16 21 27 33 37 40 45 51 53 56 58 57 56 52 45 37 32 28 20
18 22 29 32 34 34 27 22 25 20 18 14 19 16 17 22 26 31 33 36 39 43 49 53 57 55 53 47 40 38 36 32
22 25 25 31 34 36 32 28 24 27 22 18 21 18 14 15 21 25 27 28 30 34 38 42 47 49 50 50 47 45 41 40
25 30 34 39 40 39 41 25 33 30 28 24 23 23 17 13 14 16 19 21 24 26 30 35 40 42 44 44 44 43 46 49
29 30 38 44 47 47 38 36 38 36 33 31 29 27 23 17 14 14 15 17 19 22 25 29 32 34 37 39 40 40 40 41
25 33 39 43 49 49 44 42 46 44 39 38 35 32 29 23 18 15 13 15 15 16 19 23 24 27 30 33 34 35 34 34
32 35 37 41 47 47 50 53 55 51 47 45 43 39 35 30 23 21 18 15 14 13 14 16 17 20 22 23 23 24 26 25
47 51 49 49 46 46 51 58 61 61 58 52 49 46 41 35 29 26 23 19 17 14 13 12 13 14 14 14 14 14 15 14
57 55 50 52 55 50 48 56 66 69 66 58 54 52 49 42 36 31 27 24 20 18 16 15 13 13 14 14 13 11 8 7
56 54 50 51 55 53 53 55 63 71 70 67 61 56 51 46 40 36 32 27 23 22 21 19 19 19 17 17 17 17 15 12
52 53 53 56 50 48 51 58 61 67 74 73 68 60 55 50 46 41 37 34 29 25 22 20 19 19 21 22 23 22 18 16
Wind_Direction_850mb
220 231 237 244 270 298 304 311 320 328 333 337 342 342 340 337 332 325 321 317 312 310 307 305 302 298 291 285 280 273 268 267
226 237 244 248 272 289 294 306 319 328 335 340 347 347 345 341 337 335 331 326 322 317 310 305 304 300 295 291 288 279 268 265
234 246 251 253 272 275 285 301 318 328 334 344 353 352 348 347 346 343 339 334 327 324 321 318 313 309 301 296 295 287 273 273
235 244 251 252 255 262 277 296 312 322 334 350 356 355 355 355 352 350 344 341 338 333 328 324 318 311 310 305 299 295 278 267
250 247 244 248 243 255 270 285 301 317 335 354 355 358 359 359 357 357 358 353 348 344 340 338 334 328 319 315 308 304 281 269
241 245 243 233 237 248 261 272 295 307 334 350 355 359 3 3 4 5 11 5 360 357 357 355 350 345 340 325 315 306 289 281
243 239 232 227 232 241 252 261 282 294 325 344 351 2 5 6 7 11 16 15 13 10 8 5 360 359 351 330 326 316 308 292
246 240 228 224 229 237 243 252 267 278 308 330 341 356 359 4 9 12 18 19 20 17 13 15 12 7 6 1 338 320 306 299
240 230 222 220 226 232 237 246 261 266 283 308 320 342 351 359 5 12 18 20 20 21 20 19 20 12 8 7 3 356 338 325
227 224 221 222 225 232 234 242 255 252 258 284 298 325 346 359 1 4 13 21 20 19 21 22 26 21 16 14 23 26 25 15
236 226 222 222 227 236 239 246 256 250 252 269 285 305 338 356 2 1 8 15 16 19 25 26 27 31 28 26 30 39 42 43
255 250 242 231 234 241 243 248 251 248 249 254 271 284 312 345 0 2 5 11 17 22 28 31 34 35 36 37 38 38 44 50
266 258 246 239 240 244 246 245 246 247 248 249 258 268 286 314 339 351 0 10 15 23 26 29 32 33 35 39 41 41 47 50
271 263 251 246 247 248 253 240 246 246 243 245 248 257 268 282 306 324 339 354 7 16 25 30 31 33 35 39 41 43 44 51
282 267 262 255 254 255 251 243 242 247 243 242 246 253 257 264 277 292 313 326 343 3 17 29 32 33 37 38 39 41 47 50
289 285 280 270 261 257 252 246 242 243 245 243 244 246 251 258 265 275 286 298 314 340 357 9 17 28 29 29 33 37 41 41
289 286 282 275 271 263 252 246 244 241 241 242 243 245 247 252 254 259 271 281 292 305 319 334 345 358 7 14 15 20 26 14
289 286 279 270 267 264 258 248 243 243 241 241 241 242 245 249 254 258 262 268 279 289 296 304 311 323 328 339 348 354 5 10
284 283 280 275 271 268 260 254 246 243 242 241 241 241 243 246 250 254 261 266 274 281 288 297 307 315 315 315 317 324 329 330
282 283 283 281 277 276 263 254 249 244 241 240 238 239 240 243 245 249 254 259 263 262 270 281 294 306 310 307 303 303 302 299